{"data":{"norad_id":35755,"epoch":"2026-09-20T00:26:30.838272Z","epoch_age_seconds":63525,"freshness":"FRESH","line1":"1 35755U 09044A   26263.01841248 -.00000332  00000+0  00000+0 0  9996","line2":"2 35755   0.0345 273.3567 0001969 310.6841 273.5759  1.00270482 62561","mean_motion":1.00270482,"eccentricity":0.0001969,"inclination_deg":0.0345,"raan_deg":273.3567,"arg_perigee_deg":310.6841,"mean_anomaly_deg":273.5759,"bstar":0,"rev_number":6256,"period_min":1436.1155658951,"perigee_km":35778.657935699,"apogee_km":35795.262550994,"semimajor_km":42165.097243347,"source":"CELESTRAK","updated_at":"2026-09-20T09:00:35.158919Z"}}